CW5066 Weather Reports


time (UTC)temp
F
wind
direction
speed
knots
gust
knots
rain 1hr
in
rain 24hr
in
rain mn
in
humidity
%
barometer
mb
20260903205516 76 45 3.5 10.4 0.00 0.00 0.00 28 1028.5
20260903204536 74 45 5.2 13.0 0.00 0.00 0.00 28 1027.9
20260903203515 76 23 4.3 8.7 0.00 0.00 0.00 27 1028.4
20260903202515 76 90 2.6 7.0 0.00 0.00 0.00 27 1028.6
20260903201515 75 23 3.5 8.7 0.00 0.00 0.00 29 1028.8
20260903200516 73 0 2.6 9.6 0.00 0.00 0.00 27 1028.5
20260903195515 72 203 3.5 7.8 0.00 0.00 0.00 18 1027.5
20260903194515 72 180 3.5 8.7 0.00 0.00 0.00 19 1027.4
20260903193515 70 203 3.5 10.4 0.00 0.00 0.00 20 1027.0
20260903192515 70 203 7.0 13.0 0.00 0.00 0.00 21 1027.6
20260903191515 70 248 3.5 8.7 0.00 0.00 0.00 21 1027.8
20260903190515 70 225 3.5 10.4 0.00 0.00 0.00 24 1028.0
20260903185515 69 270 3.5 9.6 0.00 0.00 0.00 23 1027.9
20260903184515 68 180 7.8 20.0 0.00 0.00 0.00 23 1027.6
20260903183515 68 203 6.1 12.2 0.00 0.00 0.00 23 1027.7
20260903182537 67 203 6.1 14.8 0.00 0.00 0.00 25 1027.9
20260903181517 67 203 5.2 10.4 0.00 0.00 0.00 25 1027.8
20260903180517 66 180 7.0 15.6 0.00 0.00 0.00 26 1027.6
20260903175517 66 225 3.5 8.7 0.00 0.00 0.00 27 1027.7
20260903174517 66 248 4.3 17.4 0.00 0.00 0.00 29 1027.9
20260903173517 65 180 4.3 14.8 0.00 0.00 0.00 28 1027.7
20260903172537 65 225 4.3 9.6 0.00 0.00 0.00 29 1027.8
20260903171517 64 180 6.1 10.4 0.00 0.00 0.00 31 1027.9
20260903170517 64 225 3.5 10.4 0.00 0.00 0.00 30 1027.6
20260903165517 63 113 0.9 3.5 0.00 0.00 0.00 33 1027.1
20260903164517 63 158 2.6 8.7 0.00 0.00 0.00 32 1027.0
20260903163537 62 180 4.3 9.6 0.00 0.00 0.00 35 1027.2
20260903162517 62 158 2.6 7.8 0.00 0.00 0.00 35 1026.9
20260903161517 62 180 5.2 10.4 0.00 0.00 0.00 37 1026.3
20260903160517 61 203 4.3 10.4 0.00 0.00 0.00 37 1026.2
20260903155517 60 225 4.3 11.3 0.00 0.00 0.00 39 1026.2
20260903154537 60 158 2.6 7.0 0.00 0.00 0.00 40 1026.1
20260903153517 59 180 0.9 7.0 0.00 0.00 0.00 41 1025.5
20260903152517 59 158 4.3 8.7 0.00 0.00 0.00 42 1025.6
20260903151516 59 158 3.5 7.0 0.00 0.00 0.00 42 1025.5
20260903150517 58 158 2.6 6.1 0.00 0.00 0.00 43 1025.0
20260903145517 58 203 1.7 5.2 0.00 0.00 0.00 43 1024.9
20260903144516 57 158 2.6 6.1 0.00 0.00 0.00 46 1024.9
20260903143517 56 113 0.9 3.5 0.00 0.00 0.00 47 1024.4
20260903142516 56 0.0 0.9 0.00 0.00 0.00 49 1024.5
20260903141516 55 0.0 1.7 0.00 0.00 0.00 48 1024.4
20260903140516 55 315 0.9 2.6 0.00 0.00 0.00 50 1024.4
20260903135517 54 0 0.9 2.6 0.00 0.00 0.00 51 1024.4
20260903134517 53 158 0.9 2.6 0.00 0.00 0.00 52 1023.7
20260903133516 53 90 0.9 1.7 0.00 0.00 0.00 52 1023.6
20260903132516 53 113 0.9 2.6 0.00 0.00 0.00 52 1023.3
20260903131516 53 113 1.7 4.3 0.00 0.00 0.00 52 1023.8
20260903130516 53 135 0.9 1.7 0.00 0.00 0.00 51 1023.7
20260903125516 53 113 0.9 1.7 0.00 0.00 0.00 51 1023.7
20260903124516 53 180 2.6 4.3 0.00 0.00 0.00 50 1023.6
20260903123516 54 180 3.5 6.1 0.00 0.00 0.00 50 1023.5
20260903122516 53 180 2.6 5.2 0.00 0.00 0.00 50 1024.0
20260903121516 53 180 1.7 3.5 0.00 0.00 0.00 50 1023.9
20260903120516 53 203 1.7 3.5 0.00 0.00 0.00 51 1024.0
20260903115516 52 248 0.9 2.6 0.00 0.00 0.00 51 1024.4
20260903114516 53 225 0.9 3.5 0.00 0.00 0.00 50 1024.3
20260903113516 53 248 0.9 2.6 0.00 0.00 0.00 50 1024.3
20260903112556 52 203 0.9 1.7 0.00 0.00 0.00 52 1023.1
20260903111516 51 0.0 1.7 0.00 0.00 0.00 52 1022.9
20260903110517 52 0.0 1.7 0.00 0.00 0.00 52 1023.1
20260903105516 52 180 0.9 3.5 0.00 0.00 0.00 52 1023.1
20260903104516 52 0.0 1.7 0.00 0.00 0.00 52 1023.3
20260903103516 52 113 0.9 1.7 0.00 0.00 0.00 52 1023.3
20260903102517 53 90 0.9 2.6 0.00 0.00 0.00 51 1025.0
20260903101516 54 0.0 1.7 0.00 0.00 0.00 49 1025.5
20260903100516 54 248 1.7 3.5 0.00 0.00 0.00 49 1024.8
20260903095516 53 0.0 0.9 0.00 0.00 0.00 50 1024.9
20260903094516 53 68 0.9 1.7 0.00 0.00 0.00 51 1025.7
20260903093516 53 90 0.9 1.7 0.00 0.00 0.00 52 1025.7
20260903092515 53 0.0 1.7 0.00 0.00 0.00 53 1025.9
20260903091516 53 0.0 1.7 0.00 0.00 0.00 53 1026.0
20260903090516 54 315 0.9 2.6 0.00 0.00 0.00 53 1026.0
20260903085535 54 270 1.7 6.1 0.00 0.00 0.00 52 1026.5
20260903084535 54 270 0.9 6.1 0.00 0.00 0.00 51 1026.5
20260903083515 55 293 1.7 4.3 0.00 0.00 0.00 48 1026.4
20260903082516 55 293 1.7 3.5 0.00 0.00 0.00 46 1026.3
20260903081515 55 248 0.9 1.7 0.00 0.00 0.00 46 1026.4
20260903080515 55 248 0.9 2.6 0.00 0.00 0.00 46 1026.5
20260903075516 55 203 2.6 7.0 0.00 0.00 0.00 46 1027.0
20260903074515 54 68 1.7 3.5 0.00 0.00 0.00 49 1026.4
20260903073515 54 45 0.9 1.7 0.00 0.00 0.00 49 1026.5
20260903072515 56 270 0.9 4.3 0.00 0.00 0.00 47 1027.1
20260903071536 55 203 3.5 6.1 0.00 0.00 0.00 46 1027.0
20260903070515 56 203 5.2 7.8 0.00 0.00 0.00 46 1027.2
20260903065535 56 180 2.6 4.3 0.00 0.00 0.00 46 1026.1
20260903064515 57 225 0.9 6.1 0.00 0.00 0.00 45 1026.8
20260903063515 57 180 0.9 2.6 0.00 0.00 0.00 46 1027.0
20260903062537 58 0.0 3.5 0.00 0.00 0.00 45 1027.4
20260903061517 58 225 0.9 1.7 0.00 0.00 0.00 45 1027.5
20260903060517 57 248 0.9 0.9 0.00 0.00 0.00 46 1027.5
20260903055516 57 0.0 1.7 0.00 0.00 0.00 47 1026.8
20260903054516 57 0.0 0.0 0.00 0.00 0.00 48 1026.9
20260903053516 58 180 0.9 1.7 0.00 0.00 0.00 48 1026.2
20260903052516 58 270 0.9 2.6 0.00 0.00 0.00 48 1026.9
20260903051516 58 203 1.7 4.3 0.00 0.00 0.00 47 1026.9
20260903050536 58 180 3.5 6.1 0.00 0.00 0.00 49 1026.6
20260903045515 57 158 1.7 2.6 0.00 0.00 0.00 50 1026.6
20260903044515 57 158 1.7 3.5 0.00 0.00 0.00 50 1026.7
20260903043516 58 203 0.9 2.6 0.00 0.00 0.00 50 1026.9
20260903042536 58 180 1.7 2.6 0.00 0.00 0.00 49 1026.8
20260903041515 58 180 2.6 3.5 0.00 0.00 0.00 49 1027.0
20260903040515 59 180 2.6 4.3 0.00 0.00 0.00 48 1026.5
20260903035516 58 203 2.6 3.5 0.00 0.00 0.00 48 1026.3
20260903034516 58 203 0.9 2.6 0.00 0.00 0.00 48 1026.2
20260903033515 58 203 0.9 1.7 0.00 0.00 0.00 48 1026.1
20260903032535 58 0.0 1.7 0.00 0.00 0.00 48 1026.0
20260903031516 58 270 0.9 1.7 0.00 0.00 0.00 49 1025.9
20260903030535 57 0.0 1.7 0.00 0.00 0.00 51 1024.7
20260903025536 57 293 0.9 2.6 0.00 0.00 0.00 54 1025.0
20260903024515 57 315 0.9 2.6 0.00 0.00 0.00 53 1024.8
20260903023515 57 248 0.9 1.7 0.00 0.00 0.00 54 1024.2
20260903022535 56 248 0.9 1.7 0.00 0.00 0.00 55 1024.2
20260903021515 57 0.0 1.7 0.00 0.00 0.00 57 1024.2
20260903020515 58 225 0.9 2.6 0.00 0.00 0.00 54 1023.9
20260903015517 58 203 0.9 1.7 0.00 0.00 0.00 54 1023.8
20260903014537 58 338 1.7 3.5 0.00 0.00 0.00 55 1023.7
20260903013517 58 158 0.9 3.5 0.00 0.00 0.00 53 1023.1
20260903012517 58 135 0.9 1.7 0.00 0.00 0.00 55 1023.2
20260903011517 58 203 0.9 1.7 0.00 0.00 0.00 55 1023.3
20260903010517 59 0.0 1.7 0.00 0.00 0.00 53 1023.7
20260903005517 59 0.0 1.7 0.00 0.00 0.00 53 1023.7
20260903004517 60 203 0.9 1.7 0.00 0.00 0.00 50 1023.4
20260903003517 60 0.0 2.6 0.00 0.00 0.00 50 1024.2
20260903002517 60 293 0.9 3.5 0.00 0.00 0.00 51 1024.1
20260903001517 61 0.0 1.7 0.00 0.00 0.00 51 1024.2
20260903000517 61 0.0 0.0 0.00 0.00 0.00 49 1024.5
20260902235517 62 0.0 1.7 0.00 0.00 0.00 48 1024.8
20260902234517 63 0 3.5 7.8 0.00 0.00 0.00 45 1024.4
20260902233517 64 0 0.9 4.3 0.00 0.00 0.00 45 1024.1
20260902232537 63 338 2.6 7.0 0.00 0.00 0.00 47 1024.4
20260902231517 62 293 6.1 13.0 0.00 0.00 0.00 49 1024.1
20260902230537 62 270 5.2 11.3 0.00 0.00 0.00 49 1024.1
20260902225517 62 293 3.5 6.1 0.00 0.00 0.00 46 1023.8
20260902224517 61 293 2.6 6.1 0.00 0.00 0.00 47 1024.1
20260902223537 60 203 7.8 17.4 0.00 0.00 0.00 49 1024.2
20260902222516 62 203 8.7 23.5 0.00 0.00 0.00 42 1024.7
20260902221536 63 203 7.8 18.2 0.00 0.00 0.00 39 1024.9
20260902220516 66 113 0.9 4.3 0.00 0.00 0.00 40 1026.1
20260902215516 66 23 0.9 4.3 0.00 0.00 0.00 40 1025.7
20260902214516 67 113 2.6 7.0 0.00 0.00 0.00 36 1026.3
20260902213517 67 90 2.6 8.7 0.00 0.00 0.00 37 1025.8
20260902212537 67 113 1.7 5.2 0.00 0.00 0.00 37 1026.0
20260902211516 67 0.0 2.6 0.00 0.00 0.00 36 1025.9
20260902210516 67 68 0.9 3.5 0.00 0.00 0.00 37 1026.3